Jackson, MI

12:39 AM EST on December 11, 2019 (GMT -0500)
Jackson County-Reynolds

Weather History for KJXN - November, 2019

Change the Weather History Date:

Monday, November 11, 2019

  Actual Average Record
Temperature  
Mean Temperature 26 °F 42 °F  
Max Temperature 33 °F 50 °F 72 °F (1964)
Min Temperature 19 °F 34 °F 16 °F (1950)
Degree Days  
Heating Degree Days 38 23  
Month to date heating degree days 329 235  
Since 1 July heating degree days 818 883  
Cooling Degree Days 0 0  
Month to date cooling degree days 0 0  
Year to date cooling degree days 663 592  
Moisture  
Dew Point 24 °F    
Average Humidity 86    
Maximum Humidity 93    
Minimum Humidity 77    
Precipitation  
Precipitation 0.52 in 0.09 in 0.74 in (1984)
Month to date precipitation 0.60 0.96  
Year to date precipitation 32.51 27.99  
Sea Level Pressure  
Sea Level Pressure 30.13 in    
Wind  
Wind Speed 8 mph ()    
Max Wind Speed 16 mph    
Max Gust Speed 26 mph    
Visibility 2.3 miles    
Events Fog , Snow    
T = Trace of Precipitation, MM = Missing Value Source: Averaged Metar Reports

Daily Weather History Graph

Daily Weather History Graph

Search for Another Location

Airport or City:

Astronomy

Nov. 11, 2019 Rise Set
Actual Time 7:23 AM EST 5:20 PM EST
Civil Twilight 6:53 AM EST 5:49 PM EST
Nautical Twilight 6:19 AM EST 6:23 PM EST
Astronomical Twilight 5:46 AM EST 6:56 PM EST
Moon 5:16 PM EST 6:11 AM EST
Length of Visible Light 10h 56m
Length of Day
9h 56m
Waxing Gibbous, 99% of the Moon is Illuminated
Nov 11
Waxing Gibbous
Nov 12
Full
Nov 19
Last Quarter
Nov 26
New
Dec 4
First Quarter

Hourly Weather History & Observations

Time (EST) Temp. Windchill Dew Point Humidity Pressure Visibility Wind Dir Wind Speed Gust Speed Precip Events Conditions
12:12 AM 33.1 °F 25.5 °F 28.0 °F 82% 30.11 in 3.0 mi North 9.2 mph - 0.00 in Snow Light Snow
12:56 AM 32.0 °F 24.8 °F 28.0 °F 85% 30.15 in 4.0 mi North 8.1 mph - 0.00 in Snow Light Snow
1:02 AM 32.0 °F 25.6 °F 28.0 °F 85% 30.12 in 2.5 mi NNE 6.9 mph - 0.00 in Snow Light Snow
1:29 AM 30.9 °F 21.2 °F 27.0 °F 85% 30.10 in 4.0 mi NNE 12.7 mph 19.6 mph 0.00 in Snow Light Snow
1:56 AM 30.9 °F 22.8 °F 27.0 °F 85% 30.13 in 10.0 mi NE 9.2 mph - 0.00 in   Overcast
2:53 AM 30.2 °F 22.6 °F 26.6 °F 86% 30.12 in 10.0 mi NNE 8.1 mph - N/A   Overcast
2:56 AM 30.9 °F 25.2 °F 27.0 °F 85% 30.14 in 10.0 mi North 5.8 mph - N/A   Overcast
3:22 AM 30.9 °F 21.7 °F 26.1 °F 82% 30.12 in 7.0 mi North 11.5 mph - 0.00 in Snow Light Snow
3:53 AM 30.2 °F 21.9 °F 26.6 °F 86% 30.12 in 1.8 mi NNE 9.2 mph - 0.00 in Snow Light Snow
3:56 AM 30.0 °F 22.4 °F 26.1 °F 85% 30.15 in 1.8 mi NNE 8.1 mph - 0.01 in Snow Light Snow
4:26 AM 30.0 °F 23.2 °F 27.0 °F 88% 30.12 in 1.2 mi NNE 6.9 mph - 0.00 in Snow Light Snow
4:38 AM 30.0 °F 24.1 °F 26.1 °F 85% 30.11 in 1.5 mi North 5.8 mph - 0.01 in Snow Light Snow
4:48 AM 30.0 °F 24.1 °F 26.1 °F 85% 30.11 in 4.0 mi North 5.8 mph - 0.01 in Snow Light Snow
4:56 AM 30.0 °F 25.2 °F 26.1 °F 85% 30.15 in 6.0 mi North 4.6 mph - 0.01 in Snow Light Snow
5:16 AM 28.9 °F 21.1 °F 26.1 °F 89% 30.12 in 1.8 mi North 8.1 mph - 0.00 in Snow Light Snow
5:52 AM 28.4 °F 20.4 °F 26.6 °F 93% 30.13 in 1.0 mi North 8.1 mph - 0.01 in Snow Light Snow
5:56 AM 28.9 °F 21.9 °F 25.0 °F 85% 30.16 in 1.0 mi North 6.9 mph - 0.01 in Snow Light Snow
6:07 AM 28.9 °F 21.1 °F 26.1 °F 89% 30.14 in 0.8 mi North 8.1 mph - 0.01 in Snow Light Snow
6:14 AM 28.9 °F 21.9 °F 26.1 °F 89% 30.13 in 0.8 mi North 6.9 mph - 0.01 in Snow Light Snow
6:29 AM 28.9 °F 21.9 °F 26.1 °F 89% 30.13 in 1.0 mi North 6.9 mph - 0.02 in Snow Light Snow
6:56 AM 28.9 °F 22.8 °F 26.1 °F 89% 30.17 in 0.8 mi North 5.8 mph - 0.04 in Snow Light Snow
7:27 AM 28.9 °F 23.9 °F 26.1 °F 89% 30.15 in 0.5 mi North 4.6 mph - 0.03 in Fog , Snow Snow
7:45 AM 28.9 °F 23.9 °F 26.1 °F 89% 30.14 in 0.2 mi North 4.6 mph - 0.05 in Fog , Snow Snow
7:56 AM 28.9 °F 22.8 °F 26.1 °F 89% 30.17 in 0.2 mi North 5.8 mph - 0.07 in Fog , Snow Snow
8:56 AM 28.9 °F 22.8 °F 26.1 °F 89% 30.17 in 0.2 mi North 5.8 mph - 0.05 in Fog , Snow Snow
9:23 AM 28.0 °F 19.3 °F 25.0 °F 88% 30.12 in 0.5 mi North 9.2 mph - 0.02 in Fog , Snow Snow
9:34 AM 28.0 °F 20.0 °F 25.0 °F 88% 30.13 in 0.2 mi NNW 8.1 mph - 0.03 in Fog , Snow Snow
9:56 AM 28.0 °F 20.0 °F 25.0 °F 88% 30.15 in 0.2 mi North 8.1 mph - 0.05 in Fog , Snow Snow
10:03 AM 28.0 °F 18.1 °F 25.0 °F 88% 30.12 in 0.2 mi North 11.5 mph 18.4 mph 0.01 in Fog , Snow Snow
10:13 AM 28.0 °F 19.3 °F 24.1 °F 85% 30.12 in 0.5 mi NNW 9.2 mph - 0.02 in Fog , Snow Snow
10:26 AM 28.0 °F 19.3 °F 24.1 °F 85% 30.12 in 0.2 mi North 9.2 mph - 0.03 in Fog , Snow Snow
10:34 AM 27.0 °F 18.0 °F 24.1 °F 89% 30.12 in 0.2 mi North 9.2 mph - 0.03 in Fog , Snow Snow
10:45 AM 27.0 °F 18.0 °F 24.1 °F 89% 30.12 in 0.2 mi NNW 9.2 mph - 0.04 in Fog , Snow Snow
10:56 AM 27.0 °F 17.3 °F 24.1 °F 89% 30.16 in 0.2 mi NNW 10.4 mph - 0.05 in Fog , Snow Snow
11:56 AM 27.0 °F 19.5 °F 23.0 °F 85% 30.15 in 0.2 mi North 6.9 mph 19.6 mph 0.04 in Fog , Snow Snow
12:56 PM 26.1 °F 16.8 °F 21.9 °F 84% 30.14 in 0.2 mi North 9.2 mph 20.7 mph 0.05 in Fog , Snow Snow
1:56 PM 25.0 °F 16.3 °F 21.9 °F 88% 30.13 in 0.5 mi NNW 8.1 mph - 0.04 in Fog , Snow Snow
2:45 PM 25.0 °F 14.2 °F 21.0 °F 85% 30.08 in 0.8 mi NNW 11.5 mph - 0.02 in Snow Light Snow
2:56 PM 25.0 °F 16.3 °F 21.0 °F 85% 30.11 in 0.5 mi NNW 8.1 mph 17.3 mph 0.02 in Fog , Snow Snow
3:17 PM 25.0 °F 16.3 °F 21.0 °F 85% 30.08 in 0.8 mi NW 8.1 mph - 0.01 in Snow Light Snow
3:25 PM 25.0 °F 17.1 °F 21.0 °F 85% 30.08 in 1.0 mi NNW 6.9 mph - 0.01 in Snow Light Snow
3:56 PM 25.0 °F 15.5 °F 21.0 °F 85% 30.12 in 0.8 mi NNW 9.2 mph - 0.01 in Snow Light Snow
4:28 PM 25.0 °F 14.8 °F 21.0 °F 85% 30.09 in 0.8 mi NNW 10.4 mph - 0.01 in Snow Light Snow
4:52 PM 24.8 °F 14.6 °F 21.2 °F 86% 30.09 in 0.2 mi NW 10.4 mph - 0.02 in Fog , Snow Snow
4:56 PM 25.0 °F 14.8 °F 21.0 °F 85% 30.14 in 0.2 mi NNW 10.4 mph - 0.02 in Fog , Snow Snow
5:21 PM 25.0 °F 16.3 °F 21.0 °F 85% 30.10 in 0.8 mi NW 8.1 mph - 0.02 in Snow Light Snow
5:37 PM 25.0 °F 17.1 °F 21.0 °F 85% 30.11 in 1.0 mi NW 6.9 mph 17.3 mph 0.03 in Snow Light Snow
5:48 PM 25.0 °F 18.1 °F 21.0 °F 85% 30.11 in 1.5 mi NW 5.8 mph - 0.03 in Snow Light Snow
5:56 PM 25.0 °F 17.1 °F 21.0 °F 85% 30.15 in 1.2 mi NW 6.9 mph - 0.04 in Snow Light Snow
6:21 PM 24.1 °F 13.1 °F 21.0 °F 88% 30.12 in 1.0 mi NW 11.5 mph - 0.01 in Snow Light Snow
6:33 PM 24.1 °F 14.4 °F 19.9 °F 84% 30.12 in 1.2 mi NNW 9.2 mph - 0.01 in Snow Light Snow
6:56 PM 24.1 °F 13.1 °F 19.9 °F 84% 30.16 in 4.0 mi NNW 11.5 mph 19.6 mph 0.01 in Snow Light Snow
7:56 PM 23.0 °F 11.7 °F 18.0 °F 81% 30.18 in 10.0 mi NW 11.5 mph - 0.00 in   Overcast
8:56 PM 21.9 °F 12.5 °F 17.1 °F 82% 30.19 in 10.0 mi NW 8.1 mph - N/A   Overcast
9:56 PM 21.0 °F 10.6 °F 16.0 °F 81% 30.20 in 7.0 mi NW 9.2 mph - 0.00 in Snow Light Snow
10:56 PM 21.0 °F 11.4 °F 16.0 °F 81% 30.22 in 5.0 mi NW 8.1 mph - 0.00 in Snow Light Snow
11:56 PM 19.9 °F 13.4 °F 15.1 °F 81% 30.22 in 3.0 mi NW 4.6 mph - 0.00 in Snow Light Snow